Weather History for Clarksburg, WV

Change the Weather History Date:

Thursday, August 22, 2013

  Actual Average Record
Temperature  
Mean Temperature 72 °F -  
Max Temperature 81 °F 82 °F 97 °F (1936)
Min Temperature 64 °F 58 °F 48 °F (1956)
Cooling Degree Days 7    
Growing Degree Days 22 (Base 50)    
Moisture  
Dew Point 65 °F    
Average Humidity 80    
Maximum Humidity 94    
Minimum Humidity 65    
Precipitation  
Precipitation 0.01 in - - ()
Sea Level Pressure  
Sea Level Pressure 30.09 in    
Wind  
Wind Speed 5 mph (SW)    
Max Wind Speed 9 mph    
Max Gust Speed -    
Visibility 9 miles    
Events Rain    
Averages and records for this station are not official NWS values.
T = Trace of Precipitation, MM = Missing Value Source: NWS Daily Summary

Daily Weather History Graph

Daily Weather History Graph

Search for Another Location

Airport:

Trip Planner

Search our weather history database for the weather conditions in past years. The results will help you decide how hot, cold, wet, or windy it might be!

Date:

Astronomy

Aug. 22, 2013 Rise Set
Actual Time 6:40 AM EDT 8:06 PM EDT
Civil Twilight 6:12 AM EDT 8:34 PM EDT
Nautical Twilight 5:38 AM EDT 9:07 PM EDT
Astronomical Twilight 5:02 AM EDT 9:43 PM EDT
Moon 8:50 PM EDT (8/22) 8:26 AM EDT (8/22)
Length of Visible Light 14h 21m
Length of Day
13h 25m
Waning Gibbous, 97% of the Moon is Illuminated
Aug 22
Waning Gibbous
Aug 28
Last Quarter
Sep 5
New
Sep 12
First Quarter
Sep 19
Full

Hourly Weather History & Observations

Time (EDT) Temp. Heat Index Dew Point Humidity Pressure Visibility Wind Dir Wind Speed Gust Speed Precip Events Conditions
12:35 AM 66.2 °F - 64.4 °F 94% 30.16 in 10.0 mi SE 5.8 mph - 0.00 in Rain Light Rain
12:53 AM 66.9 °F - 64.9 °F 93% 30.12 in 10.0 mi South 3.5 mph - 0.00 in   Overcast
1:53 AM 66.9 °F - 64.9 °F 93% 30.11 in 10.0 mi SSW 4.6 mph - 0.01 in   Overcast
2:03 AM 66.2 °F - 64.4 °F 94% 30.15 in 10.0 mi SW 3.5 mph - N/A   Overcast
2:53 AM 66.0 °F - 64.0 °F 93% 30.11 in 10.0 mi SSW 5.8 mph - N/A   Overcast
3:53 AM 66.0 °F - 63.0 °F 90% 30.11 in 10.0 mi Calm Calm - N/A   Overcast
4:53 AM 64.9 °F - 63.0 °F 93% 30.10 in 10.0 mi South 3.5 mph - N/A   Mostly Cloudy
5:53 AM 64.9 °F - 63.0 °F 93% 30.10 in 10.0 mi South 3.5 mph - N/A   Clear
6:53 AM 64.0 °F - 62.1 °F 93% 30.10 in 10.0 mi SSE 3.5 mph - N/A   Clear
7:53 AM 66.0 °F - 62.1 °F 87% 30.11 in 10.0 mi Calm Calm - N/A   Mostly Cloudy
8:53 AM 66.9 °F - 63.0 °F 87% 30.12 in 10.0 mi SSW 4.6 mph - N/A   Overcast
9:22 AM 69.8 °F - 62.6 °F 78% 30.15 in 10.0 mi Variable 3.5 mph - N/A   Mostly Cloudy
9:53 AM 70.0 °F - 63.0 °F 78% 30.12 in 10.0 mi SW 6.9 mph - N/A   Overcast
10:00 AM 69.8 °F - 62.6 °F 78% 30.15 in 10.0 mi SW 4.6 mph - N/A   Overcast
10:23 AM 71.6 °F - 64.4 °F 78% 30.15 in 10.0 mi SW 6.9 mph - N/A   Scattered Clouds
10:42 AM 71.6 °F - 64.4 °F 78% 30.15 in 10.0 mi SSW 8.1 mph - N/A   Mostly Cloudy
10:53 AM 71.1 °F - 64.9 °F 81% 30.12 in 10.0 mi SW 5.8 mph - N/A   Mostly Cloudy
11:00 AM 71.6 °F - 64.4 °F 78% 30.15 in 10.0 mi West 3.5 mph - N/A   Mostly Cloudy
11:53 AM 73.9 °F - 66.9 °F 79% 30.11 in 10.0 mi SSW 8.1 mph - N/A   Overcast
12:13 PM 73.4 °F - 66.2 °F 78% 30.14 in 10.0 mi South 4.6 mph - N/A   Overcast
12:53 PM 75.0 °F - 66.0 °F 73% 30.10 in 10.0 mi WSW 6.9 mph - N/A   Overcast
1:53 PM 77.0 °F - 66.9 °F 71% 30.09 in 7.0 mi SW 8.1 mph - N/A   Mostly Cloudy
2:46 PM 78.8 °F - 66.2 °F 65% 30.09 in 6.0 mi Variable 4.6 mph - N/A   Haze
2:53 PM 79.0 °F - 68.0 °F 69% 30.05 in 6.0 mi WSW 6.9 mph - N/A   Haze
3:24 PM 78.8 °F - 68.0 °F 69% 30.08 in 6.0 mi SSW 8.1 mph - N/A   Haze
3:36 PM 78.8 °F - 68.0 °F 69% 30.08 in 6.0 mi SSW 8.1 mph - N/A   Haze
3:53 PM 80.1 °F 82.7 °F 68.0 °F 67% 30.03 in 7.0 mi SW 8.1 mph - N/A   Scattered Clouds
4:32 PM 80.6 °F 83.2 °F 68.0 °F 65% 30.06 in 8.0 mi West 9.2 mph - N/A   Mostly Cloudy
4:41 PM 80.6 °F 83.2 °F 68.0 °F 65% 30.06 in 9.0 mi West 8.1 mph - N/A   Scattered Clouds
4:53 PM 80.1 °F 82.7 °F 68.0 °F 67% 30.02 in 9.0 mi WSW 6.9 mph - N/A   Scattered Clouds
5:53 PM 79.0 °F - 68.0 °F 69% 30.01 in 9.0 mi West 4.6 mph - N/A   Mostly Cloudy
6:53 PM 78.1 °F - 68.0 °F 71% 30.01 in 9.0 mi West 5.8 mph - N/A   Mostly Cloudy
7:53 PM 75.9 °F - 66.9 °F 74% 30.00 in 8.0 mi West 3.5 mph - N/A   Partly Cloudy
8:53 PM 73.9 °F - 68.0 °F 82% 30.00 in 8.0 mi Calm Calm - N/A   Clear
9:53 PM 71.1 °F - 66.9 °F 87% 30.02 in 7.0 mi SSW 4.6 mph - N/A   Clear
10:53 PM 71.1 °F - 64.9 °F 81% 30.03 in 9.0 mi Calm Calm - N/A   Mostly Cloudy
11:53 PM 70.0 °F - 64.9 °F 84% 30.03 in 10.0 mi SW 4.6 mph - N/A   Scattered Clouds